GW1342 Weather Reports


time (UTC)temp
C
wind
direction
speed
KPH
gust
KPH
rain 1hr
cm
rain 24hr
cm
rain mn
cm
humidity
%
barometer
mb
20260507002701 24 68 1.6 6.4 0.00 0.00 0.00 86 993.9
20260507001702 24 90 3.2 6.4 0.00 0.00 0.00 86 993.7
20260507001232 24 68 3.2 6.4 0.00 0.00 0.00 86 993.7
20260507000703 24 90 0.0 6.4 0.00 0.00 0.00 86 993.7
20260507000204 24 90 3.2 6.4 0.00 0.00 0.00 86 993.7
20260506235702 24 90 3.2 6.4 0.00 0.00 0.00 86 993.7
20260506235202 24 68 1.6 6.4 0.00 0.00 0.00 87 993.9
20260506234703 24 68 3.2 6.4 0.00 0.00 0.00 87 994.2
20260506234214 24 68 3.2 6.4 0.00 0.00 0.00 86 993.8
20260506233654 24 90 3.2 6.4 0.00 0.00 0.00 86 994.1
20260506232649 24 90 1.6 6.4 0.00 0.00 0.00 85 994.1
20260506232146 24 68 3.2 6.4 0.00 0.00 0.00 85 994.2
20260506231645 24 90 0.0 6.4 0.00 0.00 0.00 86 993.9
20260506231141 25 68 1.6 6.4 0.00 0.00 0.00 85 993.9
20260506230637 25 68 3.2 6.4 0.00 0.00 0.00 85 993.9
20260506230134 25 68 1.6 6.4 0.00 0.00 0.00 85 994.0
20260506225632 25 68 1.6 6.4 0.00 0.00 0.00 85 993.7
20260506225130 25 45 3.2 6.4 0.00 0.00 0.00 84 994.1
20260506224630 25 68 1.6 6.4 0.00 0.00 0.00 84 993.9
20260506224129 25 113 3.2 11.3 0.00 0.00 0.00 85 993.9
20260506223629 25 90 3.2 11.3 0.00 0.00 0.00 85 993.9
20260506223131 25 90 3.2 6.4 0.00 0.00 0.00 85 994.2
20260506222629 25 90 1.6 6.4 0.00 0.00 0.00 85 994.0
20260506222132 25 90 3.2 6.4 0.00 0.00 0.00 86 993.9
20260506221130 25 68 0.0 6.4 0.00 0.00 0.00 85 994.2
20260506220630 25 90 1.6 6.4 0.00 0.00 0.00 85 994.0
20260506220132 25 68 0.0 6.4 0.00 0.00 0.00 86 994.0
20260506215630 25 90 3.2 6.4 0.00 0.00 0.00 86 993.8
20260506215130 25 68 1.6 3.2 0.00 0.00 0.00 87 994.0
20260506213631 25 68 0.0 3.2 0.00 0.00 0.00 89 994.0
20260506213131 25 68 0.0 6.4 0.00 0.00 0.00 89 994.2
20260506212630 25 68 1.6 6.4 0.00 0.00 0.00 89 994.2
20260506212129 25 68 0.0 3.2 0.00 0.00 0.00 89 994.2
20260506211633 25 68 1.6 3.2 0.00 0.00 0.00 89 994.0
20260506211130 25 113 1.6 3.2 0.00 0.00 0.00 89 994.2
20260506210629 25 113 1.6 3.2 0.00 0.00 0.00 89 994.3
20260506210131 25 113 0.0 3.2 0.00 0.00 0.00 89 994.2
20260506205630 25 68 0.0 3.2 0.00 0.00 0.00 90 994.2
20260506205130 25 68 1.6 3.2 0.00 0.00 0.00 89 994.3
20260506204631 26 45 0.0 3.2 0.00 0.00 0.00 88 994.2
20260506204131 26 45 1.6 3.2 0.00 0.00 0.00 87 994.6
20260506203631 26 45 1.6 3.2 0.00 0.00 0.00 87 994.5
20260506203129 27 45 1.6 3.2 0.00 0.00 0.00 86 994.5
20260506202629 27 45 1.6 6.4 0.00 0.00 0.00 86 994.5
20260506202130 27 23 3.2 6.4 0.00 0.00 0.00 84 994.5
20260506200630 27 68 1.6 3.2 0.00 0.00 0.00 82 994.3
20260506200130 27 68 0.0 3.2 0.00 0.00 0.00 82 994.4
20260506195129 27 68 0.0 3.2 0.00 0.00 0.00 80 994.6
20260506194631 28 68 0.0 3.2 0.00 0.00 0.00 80 994.7
20260506194129 28 68 3.2 3.2 0.00 0.00 0.00 78 994.4
20260506193629 28 23 1.6 3.2 0.00 0.00 0.00 79 994.5
20260506193131 28 90 1.6 3.2 0.00 0.00 0.00 78 994.6
20260506192630 28 68 1.6 3.2 0.00 0.00 0.00 75 994.5
20260506192132 28 68 1.6 6.4 0.00 0.00 0.00 75 994.8
20260506191130 29 68 3.2 9.7 0.00 0.00 0.00 73 994.8
20260506190130 29 45 3.2 9.7 0.00 0.00 0.00 72 994.9
20260506185630 29 68 6.4 20.9 0.00 0.00 0.00 73 994.9
20260506184629 30 338 4.8 12.9 0.00 0.00 0.00 71 994.9
20260506184132 30 23 6.4 11.3 0.00 0.00 0.00 72 995.0
20260506181630 30 23 12.9 29.0 0.00 0.00 0.00 69 994.8
20260506181125 30 23 6.4 24.1 0.00 0.00 0.00 69 995.2
20260506180622 31 68 9.7 17.7 0.00 0.00 0.00 71 995.4
20260506180121 31 0 8.0 17.7 0.00 0.00 0.00 70 995.3
20260506175616 31 23 11.3 17.7 0.00 0.00 0.00 69 995.4
20260506174602 31 45 6.4 24.1 0.00 0.00 0.00 66 995.6
20260506174103 31 45 14.5 24.1 0.00 0.00 0.00 65 995.6
20260506172603 31 0 6.4 20.9 0.00 0.00 0.00 67 995.9
20260506172101 30 0 11.3 20.9 0.00 0.00 0.00 66 996.2
20260506171604 31 68 9.7 17.7 0.00 0.00 0.00 68 996.1
20260506171104 31 45 12.9 22.5 0.00 0.00 0.00 68 996.2
20260506165103 30 338 9.7 27.4 0.00 0.00 0.00 68 996.6
20260506164602 31 68 11.3 17.7 0.00 0.00 0.00 69 996.6
20260506164102 31 0 4.8 11.3 0.00 0.00 0.00 68 996.6
20260506163603 30 23 6.4 17.7 0.00 0.00 0.00 69 996.9
20260506163102 31 0 6.4 17.7 0.00 0.00 0.00 66 997.0
20260506162602 31 0 3.2 14.5 0.00 0.00 0.00 66 996.8
20260506162101 31 68 6.4 14.5 0.00 0.00 0.00 66 997.0
20260506161603 30 45 6.4 11.3 0.00 0.00 0.00 68 997.4
20260506161101 30 45 4.8 12.9 0.00 0.00 0.00 68 997.1
20260506160603 30 45 4.8 14.5 0.00 0.00 0.00 68 997.4
20260506155603 30 338 8.0 14.5 0.00 0.00 0.00 68 997.5
20260506154603 30 45 6.4 11.3 0.00 0.00 0.00 71 997.4
20260506154101 30 45 4.8 11.3 0.00 0.00 0.00 70 997.7
20260506153601 30 90 3.2 12.9 0.00 0.00 0.00 72 998.0
20260506153103 30 338 6.4 12.9 0.00 0.00 0.00 72 997.9
20260506152601 30 45 4.8 9.7 0.00 0.00 0.00 69 997.9
20260506152102 30 338 6.4 9.7 0.00 0.00 0.00 71 998.0
20260506151601 29 68 4.8 11.3 0.00 0.00 0.00 72 998.1
20260506151100 29 0 4.8 11.3 0.00 0.00 0.00 72 998.2
20260506150606 28 23 4.8 11.3 0.00 0.00 0.00 75 998.2
20260506145103 28 68 6.4 14.5 0.00 0.00 0.00 75 998.7
20260506144101 28 23 6.4 14.5 0.00 0.00 0.00 76 998.7
20260506143603 28 0 6.4 17.7 0.00 0.00 0.00 78 998.7
20260506142603 27 68 8.0 17.7 0.00 0.00 0.00 79 998.9
20260506142101 27 68 3.2 17.7 0.00 0.00 0.00 81 998.8
20260506141602 27 68 6.4 17.7 0.00 0.00 0.00 81 998.6
20260506141101 27 68 6.4 12.9 0.00 0.00 0.00 80 998.9
20260506140602 27 23 3.2 12.9 0.00 0.00 0.00 80 999.0
20260506140101 27 23 4.8 9.7 0.00 0.00 0.00 81 998.9
20260506135604 27 23 4.8 9.7 0.00 0.00 0.00 81 998.9
20260506134603 26 23 6.4 9.7 0.00 0.00 0.00 81 999.1
20260506134102 26 23 6.4 12.9 0.00 0.00 0.00 81 998.9
20260506133602 26 23 4.8 12.9 0.00 0.00 0.00 82 999.1
20260506132603 26 0 3.2 14.5 0.00 0.00 0.00 83 999.0
20260506132103 26 68 4.8 14.5 0.00 0.00 0.00 83 999.0
20260506131602 26 0 3.2 11.3 0.00 0.00 0.00 84 999.0
20260506131101 26 23 3.2 9.7 0.00 0.00 0.00 84 999.1
20260506130603 26 45 4.8 12.9 0.00 0.00 0.00 84 999.0
20260506125605 25 23 6.4 9.7 0.00 0.00 0.00 85 999.1
20260506125102 25 23 4.8 6.4 0.00 0.00 0.00 86 999.0
20260506124602 25 23 4.8 6.4 0.00 0.00 0.00 86 999.2
20260506124104 25 45 3.2 14.5 0.00 0.00 0.00 87 999.1
20260506123603 24 68 4.8 14.5 0.00 0.00 0.00 87 999.2
20260506123105 24 23 4.8 11.3 0.00 0.00 0.00 87 999.1
20260506122601 24 45 4.8 11.3 0.00 0.00 0.00 87 999.1
20260506122104 24 45 6.4 11.3 0.00 0.00 0.00 87 999.3
20260506121601 23 45 4.8 11.3 0.00 0.00 0.00 88 999.4
20260506121101 23 45 3.2 11.3 0.00 0.00 0.00 88 999.3
20260506120602 23 45 6.4 14.5 0.00 0.00 0.00 88 999.5
20260506120101 23 90 3.2 14.5 0.00 0.00 0.00 88 999.2
20260506115603 23 90 1.6 11.3 0.00 0.00 0.00 88 999.4
20260506115103 23 23 3.2 11.3 0.00 0.00 0.00 88 999.3
20260506114601 23 68 6.4 11.3 0.00 0.00 0.00 88 999.4
20260506113602 23 23 3.2 9.7 0.00 0.00 0.00 88 999.3
20260506112603 23 0 3.2 6.4 0.00 0.00 0.00 90 999.4
20260506112102 22 68 3.2 6.4 0.00 0.00 0.00 90 999.5
20260506111605 22 45 1.6 3.2 0.00 0.00 0.00 90 999.3
20260506111101 22 45 1.6 3.2 0.00 0.00 0.00 91 999.5
20260506110602 22 45 0.0 3.2 0.00 0.00 0.00 92 999.5
20260506105602 21 45 1.6 3.2 0.00 0.00 0.00 92 999.2
20260506105102 21 45 0.0 3.2 0.00 0.00 0.00 93 999.4
20260506104601 21 68 1.6 3.2 0.00 0.00 0.00 93 999.1
20260506104101 21 45 0.0 3.2 0.00 0.00 0.00 93 999.2
20260506103601 21 45 0.0 3.2 0.00 0.00 0.00 93 999.3
20260506103107 21 68 1.6 3.2 0.00 0.00 0.00 93 999.3
20260506102602 21 68 1.6 3.2 0.00 0.00 0.00 92 999.0
20260506102104 21 68 1.6 6.4 0.00 0.00 0.00 92 999.1
20260506101101 21 68 3.2 6.4 0.00 0.00 0.00 93 999.0
20260506100601 21 90 3.2 6.4 0.00 0.00 0.00 93 998.9
20260506100105 21 90 3.2 6.4 0.00 0.00 0.00 93 998.9
20260506095601 20 90 0.0 6.4 0.00 0.00 0.00 93 999.0
20260506095101 20 90 0.0 6.4 0.00 0.00 0.00 93 998.8
20260506094101 20 68 0.0 3.2 0.00 0.00 0.00 93 999.0
20260506093600 20 68 1.6 3.2 0.00 0.00 0.00 93 998.9
20260506093059 20 90 0.0 6.4 0.00 0.00 0.00 93 998.7
20260506092052 20 90 0.0 3.2 0.00 0.00 0.00 93 998.7
20260506091548 20 90 0.0 3.2 0.00 0.00 0.00 93 998.9
20260506091048 20 90 1.6 3.2 0.00 0.00 0.00 93 998.9
20260506090545 20 90 0.0 3.2 0.00 0.00 0.00 93 998.8
20260506085537 20 68 1.6 3.2 0.00 0.00 0.00 93 998.7
20260506085035 21 90 3.2 6.4 0.00 0.00 0.00 93 998.6
20260506084530 21 90 3.2 6.4 0.00 0.00 0.00 93 998.7
20260506084028 20 90 0.0 3.2 0.00 0.00 0.00 93 998.5
20260506083022 21 90 3.2 3.2 0.00 0.00 0.00 93 998.4
20260506082519 21 90 3.2 3.2 0.00 0.00 0.00 93 998.7
20260506082016 20 90 0.0 6.4 0.00 0.00 0.00 93 998.6
20260506081513 21 90 3.2 6.4 0.00 0.00 0.00 93 998.7
20260506081011 21 90 3.2 3.2 0.00 0.00 0.00 93 998.8
20260506080507 20 68 1.6 3.2 0.00 0.00 0.00 93 998.7
20260506073002 21 90 3.2 3.2 0.00 0.00 0.00 93 998.7
20260506072002 21 90 3.2 3.2 0.00 0.00 0.00 93 998.7
20260506071503 21 90 3.2 3.2 0.00 0.00 0.00 93 998.8
20260506071002 21 90 3.2 3.2 0.00 0.00 0.00 93 998.8
20260506070501 21 90 3.2 3.2 0.00 0.00 0.00 93 998.6
20260506062502 21 68 0.0 3.2 0.00 0.00 0.00 93 998.7
20260506062003 21 90 3.2 3.2 0.00 0.00 0.00 93 998.5
20260506061501 21 90 3.2 3.2 0.00 0.00 0.00 93 998.3
20260506061000 21 90 3.2 6.4 0.00 0.00 0.00 93 998.4
20260506060457 21 68 3.2 6.4 0.00 0.00 0.00 93 998.4
20260506050924 21 90 0.0 0.0 0.00 0.00 0.00 93 998.5
20260506050421 21 90 0.0 3.2 0.00 0.00 0.00 93 998.4
20260506044912 21 90 3.2 3.2 0.00 0.00 0.00 93 998.4
20260506043902 21 90 0.0 3.2 0.00 0.00 0.00 93 998.4
20260506042906 21 90 0.0 3.2 0.00 0.00 0.00 93 998.5
20260506041901 21 90 1.6 3.2 0.00 0.00 0.00 93 998.3
20260506041401 21 90 3.2 3.2 0.00 0.00 0.00 93 998.6
20260506040902 21 90 0.0 3.2 0.00 0.00 0.00 93 998.2
20260506040403 21 90 0.0 3.2 0.00 0.00 0.00 94 998.3
20260506035902 21 90 3.2 3.2 0.00 0.00 0.00 94 998.5
20260506035402 21 68 0.0 3.2 0.00 0.00 0.00 94 998.6
20260506034901 21 68 0.0 3.2 0.00 0.00 0.00 94 998.5
20260506034403 21 68 1.6 3.2 0.00 0.00 0.00 94 998.5
20260506033905 21 68 1.6 3.2 0.00 0.00 0.00 94 998.4
20260506033401 21 68 3.2 3.2 0.00 0.00 0.00 94 998.4
20260506032901 21 23 0.0 6.4 0.00 0.00 0.00 94 998.5
20260506032402 21 45 0.0 6.4 0.00 0.00 0.00 94 998.6
20260506031901 21 68 0.0 3.2 0.00 0.00 0.00 94 998.6
20260506030903 21 68 0.0 3.2 0.00 0.00 0.00 94 998.9
20260506030402 21 68 0.0 3.2 0.00 0.00 0.00 94 998.9
20260506025901 21 68 0.0 3.2 0.00 0.00 0.00 94 998.9
20260506025406 21 68 0.0 3.2 0.00 0.00 0.00 94 998.8
20260506024902 21 68 0.0 3.2 0.00 0.00 0.00 94 998.7
20260506024403 21 68 0.0 0.0 0.00 0.00 0.00 93 998.9
20260506023901 21 68 0.0 0.0 0.00 0.00 0.00 93 999.0
20260506023402 21 68 0.0 0.0 0.00 0.00 0.00 93 998.8
20260506022904 21 68 0.0 0.0 0.00 0.00 0.00 93 998.7
20260506022404 21 68 0.0 3.2 0.00 0.00 0.00 93 998.8
20260506021857 21 68 0.0 3.2 0.00 0.00 0.00 93 998.7
20260506021355 21 68 0.0 0.0 0.00 0.00 0.00 93 998.8
20260506020852 21 68 0.0 3.2 0.00 0.00 0.00 93 998.6
20260506020351 21 68 0.0 3.2 0.00 0.00 0.00 93 998.7
20260506015847 21 68 0.0 3.2 0.00 0.00 0.00 93 998.9
20260506015359 21 68 0.0 3.2 0.00 0.00 0.00 93 998.9
20260506014840 21 68 0.0 3.2 0.00 0.00 0.00 93 998.8
20260506014336 21 68 0.0 3.2 0.00 0.00 0.00 93 998.7
20260506013834 21 68 0.0 3.2 0.00 0.00 0.00 93 998.7
20260506012834 21 68 0.0 3.2 0.00 0.00 0.00 93 998.4
20260506011829 22 68 0.0 3.2 0.00 0.00 0.00 92 998.8
20260506011331 22 68 0.0 3.2 0.00 0.00 0.00 92 998.8
20260506010330 22 68 0.0 3.2 0.00 0.00 0.00 91 998.7
20260506005830 22 68 1.6 6.4 0.00 0.00 0.00 90 998.7
20260506004830 23 68 3.2 6.4 0.00 0.00 0.00 89 998.6
20260506004329 23 90 3.2 6.4 0.00 0.00 0.00 90 998.5
20260506003831 23 113 1.6 6.4 0.00 0.00 0.00 90 998.3
20260506003329 23 90 1.6 3.2 0.00 0.00 0.00 90 998.5